Notices

What's New in latest Release from April 7th, 2021:

- Updated Glossary, including Speed of Maximum Gust, and Total Hourly Precipitation

- Updated national and regional climate services offices contacts and prices information

- Addition of station inventory lists for 1981-2010, 1971-2000, and 1961-1990 Normals.

If you haven't already, please take our survey and provide feedback about our website: https://eccc.sondage-survey.ca/f/LanguageSelection.aspx?s=442ca660-fcf1-47c0-95a9-59707d6fd709

Hourly Data Report for November 02, 2019

MIRAMICHI RCS
NEW BRUNSWICK
Current Station Operator: ECCC - MSC

47°00'34.000" N
65°27'54.000" W
33.00 m
8100989
71744
ACQ

Download Data

Hourly Data (November 2019)
Hourly Data Report for November 2, 2019
TIME
LST
Temp Definition
°C
Dew Point Definition
°C
Rel Hum Definition
%
Precip. Amount Definition
mm

Wind Dir Definition
10's deg

Wind Spd Definition
km/h
Visibility Definition
km
Stn Press Definition
kPa
Hmdx Definition


Wind Chill Definition


Weather Definition


00:00 5.2 -3.7 53 0.0 27 30   100.64     LegendNANA
01:00 4.8 -4.4 51 0.0 28 29   100.78     LegendNANA
02:00 4.2 -4.2 54 0.0 29 25   100.89     LegendNANA
03:00 3.7 -4.4 55 0.0 28 25   101.04     LegendNANA
04:00 3.3 -4.1 58 0.0 29 20   101.14     LegendNANA
05:00 2.5 -4.9 58 0.0 29 15   101.29     LegendNANA
06:00 1.3 -4.9 63 0.0 27 7   101.40     LegendNANA
07:00 0.4 -4.2 71 0.0 29 10   101.51     LegendNANA
08:00 0.5 -2.8 78 0.0 23 10   101.66     LegendNANA
09:00 3.0 -2.6 67 0.0 25 12   101.68     LegendNANA
10:00 4.2 -2.6 61 0.0 31 11   101.70     LegendNANA
11:00 5.0 -3.2 55 0.0 29 11   101.78     LegendNANA
12:00 6.0 -3.6 50 0.0 32 6   101.74     LegendNANA
13:00 6.7 -2.3 53 0.0 20 8   101.70     LegendNANA
14:00 7.4 -3.8 45 0.0 18 6   101.68     LegendNANA
15:00 7.7 -3.9 43 0.0 22 6   101.68     LegendNANA
16:00 7.4 -3.9 44 0.0 20 4   101.63     LegendNANA
17:00 5.8 -3.0 53 0.0 15 5   101.63     LegendNANA
18:00 3.0 -2.3 68 0.0 10 11   101.66     LegendNANA
19:00 1.8 -2.5 73 0.0 13 7   101.70     LegendNANA
20:00 0.8 -2.8 77 0.0 13 5   101.65     LegendNANA
21:00 0.7 -2.4 80 0.0 16 5   101.61     LegendNANA
22:00 0.4 -2.7 79 0.0 16 7   101.57     LegendNANA
23:00 0.0 -2.8 81 0.0 16 6   101.52   -2 LegendNANA

Notes on Data Quality.

Legend

  • E = Estimated
  • M = Missing
  • NA = Not Available*
  • [empty] = Indicates an unobserved value
Date modified: